Vorticity
8 9 9 10 10 9 7 6 6 9 6 7 -0 -4 4 6 5 6 6 5 6 9 11 8 7 8 7 12 11 16 5 -2 9 13 14 1 6 -6
7 7 8 8 8 8 6 6 7 8 10 5 3 5 2 2 5 8 8 7 7 7 8 11 7 4 7 7 12 12 15 20 9 3 11 29 -9 -9
10 11 11 11 10 9 8 7 7 6 7 5 8 7 7 7 4 5 9 9 9 11 11 10 11 7 4 5 8 12 13 16 13 13 6 8 -3 -0
6 6 7 6 6 8 8 8 9 9 9 11 9 6 7 9 7 4 2 5 10 9 11 12 12 10 8 5 6 10 5 11 15 17 -4 0 16 -7
10 9 9 9 10 10 9 8 8 8 9 9 11 11 9 7 8 8 8 4 3 7 8 10 11 13 9 8 5 10 11 13 22 18 19 6 3 5
10 10 10 10 10 9 9 8 7 7 7 7 8 10 11 11 12 9 7 10 8 4 6 8 10 11 12 8 8 6 13 14 17 15 8 -11 14 0
10 11 11 13 14 15 15 15 15 15 13 13 11 10 11 11 10 12 11 8 8 11 3 5 9 11 10 12 8 9 7 12 13 11 21 9 -3 8
16 17 16 14 12 10 9 9 9 9 8 8 7 7 9 13 19 20 17 9 7 9 11 3 6 10 11 10 9 9 8 10 14 17 -1 14 -0 -2
14 13 12 12 12 12 11 12 13 13 13 12 11 13 14 15 12 9 11 20 20 10 13 7 2 8 10 7 10 10 10 10 13 15 14 18 7 17
13 12 11 11 12 12 12 13 13 13 15 16 16 14 14 13 13 15 13 10 9 21 20 19 1 8 9 8 8 11 8 11 10 16 16 17 -1 12
12 11 11 11 12 12 12 12 12 13 13 13 15 17 20 19 17 14 13 15 14 10 12 22 16 9 8 9 7 8 11 10 11 11 16 17 6 -0
11 11 12 14 13 12 12 13 13 15 16 15 15 15 16 17 20 18 17 14 15 14 10 10 14 19 14 18 8 4 11 7 13 12 15 18 20 -1
11 11 12 14 14 14 14 14 16 16 17 19 18 17 15 16 17 21 21 16 16 18 12 11 15 13 13 22 23 12 8 8 9 13 11 17 17 -5
11 11 13 13 13 14 14 13 12 10 9 6 5 7 12 14 17 11 13 17 17 16 14 10 13 10 10 14 21 20 21 10 9 12 11 13 23 8
11 11 12 13 13 13 14 12 14 17 15 18 17 11 9 9 13 15 15 14 17 19 17 14 17 15 11 11 18 19 22 14 11 10 12 11 19 19
11 10 12 12 11 10 11 10 7 6 7 5 -1 1 6 5 9 10 7 9 11 16 19 16 15 16 13 12 13 19 24 14 15 11 12 9 14 23
10 11 14 13 16 14 10 10 11 12 10 10 10 11 11 15 11 7 13 12 10 12 17 17 18 17 13 13 12 16 20 17 12 15 11 10 15 14
10 11 12 11 11 13 12 11 13 15 16 16 17 17 16 12 12 13 9 12 16 9 7 10 19 20 15 13 13 12 20 11 16 14 16 12 12 12
10 11 12 12 13 14 13 11 10 13 15 14 14 14 15 13 17 7 11 16 12 18 13 13 14 18 17 14 12 14 15 11 22 19 13 14 13 16
10 10 11 12 13 13 15 12 11 10 13 14 12 13 14 17 16 16 20 12 13 12 11 15 12 14 15 12 13 12 10 12 24 24 15 14 12 13
11 10 10 11 12 13 13 14 15 14 12 13 12 12 13 14 18 19 20 15 14 6 8 11 13 15 17 14 17 10 11 15 18 27 18 17 15 18
11 10 10 12 14 12 13 11 11 13 14 14 13 12 12 12 11 13 14 16 21 13 13 15 14 13 15 14 14 9 10 14 19 13 27 20 17 5
13 11 10 11 12 14 13 13 13 11 12 14 16 13 12 15 16 13 12 16 9 14 21 9 11 20 13 16 12 11 10 12 13 21 11 24 19 22
Height
3076 3075 3074 3073 3073 3073 3072 3072 3071 3072 3073 3075 3074 3074 3073 3073 3073 3074 3076 3078 3078 3078 3078 3078 3078 3079 3079 3082 3083 3084 3087 3089 3093 3095 3099 3100 3104 3106
3068 3068 3067 3066 3065 3064 3064 3064 3063 3062 3060 3068 3066 3065 3064 3064 3065 3066 3067 3069 3070 3071 3073 3073 3072 3073 3074 3075 3076 3078 3080 3083 3086 3090 3094 3095 3099 3104
3059 3059 3058 3057 3056 3055 3054 3054 3054 3052 3049 3058 3057 3057 3057 3054 3054 3056 3058 3059 3061 3062 3064 3066 3067 3068 3068 3069 3070 3071 3073 3076 3079 3086 3089 3091 3095 3100
3050 3049 3049 3047 3047 3045 3044 3043 3043 3042 3040 3039 3047 3047 3047 3047 3046 3045 3047 3049 3051 3053 3055 3057 3058 3060 3062 3063 3064 3066 3068 3070 3071 3077 3083 3087 3091 3095
3040 3039 3039 3037 3037 3035 3033 3032 3032 3031 3029 3026 3031 3035 3036 3035 3038 3038 3037 3038 3041 3043 3045 3047 3050 3052 3053 3055 3057 3060 3062 3064 3067 3073 3078 3082 3085 3089
3030 3029 3027 3026 3025 3024 3023 3022 3020 3019 3019 3016 3014 3021 3024 3027 3024 3026 3028 3027 3029 3032 3035 3038 3041 3043 3045 3047 3049 3052 3056 3060 3064 3067 3071 3075 3080 3085
3018 3016 3015 3014 3013 3012 3011 3010 3008 3007 3006 3005 3004 3003 3009 3012 3014 3013 3013 3017 3017 3020 3023 3026 3030 3033 3036 3039 3041 3044 3047 3052 3055 3059 3062 3067 3073 3077
3006 3004 3002 3002 3001 3000 2998 2998 2997 2995 2994 2993 2992 2991 2994 2997 2999 3000 3001 3002 3006 3005 3009 3016 3017 3023 3027 3029 3032 3034 3039 3042 3047 3051 3056 3060 3066 3071
2996 2994 2993 2991 2990 2989 2987 2986 2985 2984 2982 2981 2979 2980 2979 2983 2984 2986 2989 2989 2989 2995 2995 3000 3006 3012 3015 3020 3022 3025 3031 3034 3039 3043 3047 3053 3059 3064
2986 2985 2983 2982 2980 2977 2975 2975 2974 2973 2972 2970 2968 2968 2967 2969 2970 2972 2974 2976 2978 2980 2983 2983 2994 2997 3003 3008 3012 3014 3020 3026 3030 3035 3040 3046 3052 3058
2977 2976 2974 2971 2969 2966 2964 2963 2962 2961 2960 2959 2957 2956 2957 2957 2958 2958 2960 2960 2966 2969 2972 2969 2980 2982 2988 2996 2999 3004 3009 3015 3021 3026 3031 3037 3045 3052
2969 2966 2965 2962 2959 2957 2955 2953 2951 2951 2949 2948 2947 2947 2946 2946 2947 2946 2948 2949 2952 2957 2961 2959 2967 2967 2973 2980 2986 2992 2997 3004 3010 3016 3021 3028 3036 3043
2959 2958 2956 2953 2949 2947 2945 2943 2942 2941 2940 2939 2937 2937 2937 2936 2937 2937 2937 2937 2939 2943 2949 2948 2956 2957 2959 2965 2972 2980 2986 2992 2999 3006 3012 3018 3026 3034
2950 2948 2946 2943 2940 2938 2936 2935 2934 2934 2932 2931 2930 2929 2928 2929 2929 2928 2928 2928 2929 2933 2938 2937 2943 2946 2949 2953 2959 2967 2974 2981 2988 2995 3001 3008 3016 3025
2940 2938 2936 2933 2931 2929 2928 2927 2926 2925 2923 2922 2921 2921 2921 2921 2921 2920 2920 2921 2921 2923 2926 2927 2932 2936 2938 2942 2947 2954 2962 2969 2976 2983 2990 2997 3005 3013
2932 2928 2926 2924 2922 2920 2918 2918 2917 2916 2914 2913 2912 2912 2913 2912 2911 2913 2912 2913 2913 2914 2917 2918 2921 2924 2928 2933 2937 2943 2948 2955 2963 2971 2978 2986 2994 3002
2923 2921 2918 2916 2914 2912 2910 2908 2907 2906 2904 2903 2902 2902 2902 2902 2902 2903 2903 2904 2904 2906 2909 2910 2912 2915 2918 2923 2927 2933 2937 2944 2952 2959 2967 2975 2983 2992
2914 2912 2909 2907 2904 2903 2900 2899 2898 2897 2895 2893 2892 2892 2892 2892 2893 2893 2894 2895 2896 2898 2900 2902 2903 2906 2909 2913 2919 2924 2926 2934 2940 2947 2955 2963 2972 2982
2906 2903 2900 2898 2895 2893 2891 2890 2889 2887 2886 2884 2883 2883 2883 2883 2883 2884 2886 2887 2888 2889 2891 2893 2895 2897 2900 2903 2910 2913 2917 2923 2929 2935 2943 2951 2962 2972
2897 2894 2891 2889 2887 2885 2883 2881 2879 2879 2877 2876 2875 2874 2874 2873 2873 2873 2875 2878 2880 2881 2882 2884 2886 2889 2891 2895 2898 2905 2908 2914 2919 2925 2932 2939 2950 2959
2888 2885 2883 2880 2878 2876 2874 2872 2870 2869 2868 2867 2866 2865 2865 2864 2864 2864 2865 2867 2870 2872 2873 2875 2879 2882 2884 2886 2890 2897 2901 2905 2910 2916 2922 2928 2938 2947
2879 2876 2874 2872 2869 2867 2865 2863 2861 2860 2859 2858 2857 2856 2856 2856 2856 2856 2857 2858 2860 2862 2865 2868 2870 2873 2875 2877 2881 2887 2892 2896 2901 2906 2913 2919 2929 2938
2870 2867 2865 2862 2860 2858 2855 2853 2852 2851 2850 2849 2848 2847 2847 2846 2847 2847 2848 2850 2851 2853 2855 2858 2861 2863 2866 2869 2872 2877 2883 2888 2893 2898 2905 2912 2918 2929